Location: ???????
(54.9996°N, 37.9529°E)
Time: 01:47:51
(UTC+00:00)

ISS - Visible Passes

Search period start: 22 January 2026 00:00
Search period end: 01 February 2026 00:00
Orbit: 413 x 423 km, 51.6° (Epoch: 21 January)

Date Brightness Start Highest point End Pass type
(mag) Time Alt. Az. Time Alt. Az. Time Alt. Az.
22 Jan -3.1 15:21:19 10° WSW 15:24:33 47° S 15:26:27 21° ESE visible
22 Jan -1.2 16:57:59 10° W 16:59:23 20° WSW 16:59:23 20° WSW visible
23 Jan -2.9 14:33:24 10° WSW 14:36:37 46° S 14:39:51 10° ESE visible
23 Jan -2.7 16:09:58 10° W 16:13:05 36° SSW 16:13:26 35° S visible
24 Jan -2.7 15:21:58 10° W 15:25:08 41° S 15:27:30 16° SE visible
24 Jan -1.1 16:58:57 10° WSW 17:00:26 17° SW 17:00:26 17° SW visible
25 Jan -2.8 14:33:55 10° W 14:37:08 45° S 14:40:22 10° ESE visible
25 Jan -1.8 16:10:43 10° W 16:13:28 24° SSW 16:14:33 20° S visible
26 Jan -2.1 15:22:31 10° W 15:25:30 30° SSW 15:28:29 10° SE visible
26 Jan -0.7 17:01:03 10° SW 17:01:30 10° SW 17:01:41 10° SW visible
27 Jan -2.3 14:34:21 10° W 14:37:28 36° SSW 14:40:34 10° SE visible
27 Jan -0.9 16:11:42 10° WSW 16:13:35 14° SW 16:15:28 10° S visible
28 Jan -1.2 15:23:09 10° WSW 15:25:36 19° SSW 15:28:03 10° SSE visible
29 Jan -1.4 14:34:45 10° W 14:37:32 25° SSW 14:40:20 10° SSE visible
30 Jan -0.4 15:24:39 10° SW 15:25:24 11° SW 15:26:09 10° SSW visible
